Regional Weather Roundup
Issued by NWS

Home | Current Version | Previous Version | Text Only | Print | Product List | Glossary Off
Versions: 1 2 3 4 5 6 7 8 9 10 11 12 13 14 15 16 17 18 19 20 21 22 23 24 25 26 27 28 29 30 31 32 33 34 35 36 37 38 39 40 41 42 43 44 45 46 47 48 49 50

000
ASUS43 KLOT 021821
RWRIL

ILLINOIS REGIONAL WEATHER ROUNDUP
NATIONAL WEATHER SERVICE CHICAGO/ROMEOVILLE IL
100 PM CDT TUE JUN 02 2015

NOTE: "FAIR" INDICATES FEW OR NO CLOUDS BELOW 12,000 FEET WITH NO
SIGNIFICANT WEATHER AND/OR OBSTRUCTIONS TO VISIBILITY.

* THESE STATIONS ARE NOT UNDER NWS QUALITY CONTROL. THEY ALSO MAY NOT
  REPORT WEATHER SUCH AS PRECIPITATION OR FOG.

ILZ001-002-007-009-015-016-024-021900-
NORTHWEST ILLINOIS

CITY           SKY/WX    TMP DP  RH WIND       PRES   REMARKS
MOLINE         MOSUNNY   71  50  47 SE8       30.11F
6HR MIN TEMP:  51; 6HR MAX TEMP:  71;

STERLING*      SUNNY     70  50  49 S3        30.12F
SAVANNA*       SUNNY     69  50  51 W3        30.13S
$$

ILZ003-004-008-010-011-017-018-021900-
NORTH CENTRAL ILLINOIS

CITY           SKY/WX    TMP DP  RH WIND       PRES   REMARKS
ROCKFORD       MOSUNNY   70  46  42 SE12G21   30.14F
6HR MIN TEMP:  48; 6HR MAX TEMP:  70;

FREEPORT*      SUNNY     67  44  42 E3        30.15F
ROCHELLE*      SUNNY     69  45  42 S6        30.14F
DE KALB*       SUNNY     66  48  51 E8        30.15F
PERU*          SUNNY     69  47  45 E6        30.14F
$$

ILZ005-006-012>014-019>023-021900-
NORTHEAST ILLINOIS

CITY           SKY/WX    TMP DP  RH WIND       PRES   REMARKS
CHICAGO-OHARE  MOSUNNY   68  44  42 E10       30.14F
6HR MIN TEMP:  48; 6HR MAX TEMP:  68;

CHICAGO-MIDWAY MOSUNNY   67  44  43 E13       30.16F
6HR MIN TEMP:  52; 6HR MAX TEMP:  68;

AURORA         SUNNY     70  48  45 E7G14     30.14F
6HR MIN TEMP:  49; 6HR MAX TEMP:  70;

LANSING*       MOSUNNY   66  47  50 NE8       30.15F
JOLIET*        SUNNY     70  51  50 S6        30.14F
WAUKEGAN       SUNNY     60  48  64 E8        30.16F
6HR MIN TEMP:  48; 6HR MAX TEMP:  61;

DUPAGE AIRPORT SUNNY     69  47  45 VRB5      30.14F
6HR MIN TEMP:  47; 6HR MAX TEMP:  69;

KANKAKEE*      SUNNY     67  49  53 E12       30.15F
WHEELING       SUNNY     67  44  43 E9        30.17F
6HR MIN TEMP:  48; 6HR MAX TEMP:  67;

MORRIS*        SUNNY     69  46  44 SE10G17   30.13S
ROMEOVILLE*    SUNNY     68  47  45 E8        30.14F
NORTHERLY ISL    N/A     56  50  80 NE2         N/A
$$

LMZ740>746-021900-
SOUTHERN LAKE MICHIGAN

STATION/POSITION SKY/WX   TEMP    WIND        PRES    VSBY  WAVE
                          AIR SEA DIR/SP/G                  HT/PER
                          (F)     (DEG/KT/KT) (MB)    (MI)  (FT/S)
SOUTHERN BUOY              43 39  140/  6/  6 1022.7F
HARRISON CRIB              52      80/  8/  9   N/A
BURNHAM HARBOR             56      60/  5       N/A
CALUMET HARBOR             54      50/  8/ 10   N/A
BURNS HARBOR                       30/  9/ 12 1022.4F
MICHIGAN CITY              54     360/  9/ 10   N/A
MICHIGAN CITY 6N           53 56   10/  6/  8   N/A           1/ 4
ST. JOSEPH                 54 56   10/  8/ 10   N/A           1
$$

ILZ025>027-034>036-040-047-049-050-058-095>099-021900-
WEST-CENTRAL ILLINOIS

CITY           SKY/WX    TMP DP  RH WIND       PRES   REMARKS
QUINCY         CLOUDY    68  52  56 SE8       30.11F
GALESBURG*     CLOUDY    68  52  55 SE6       30.12F
MACOMB*        PTSUNNY   69  52  54 SE6       30.14F
JACKSONVILLE*  MOSUNNY   70  53  56 E7        30.12F
PITTSFIELD*    CLOUDY    69  54  58 E6        30.13S
$$

ILZ028>032-037-038-041>044-048-051>054-059>061-021900-
CENTRAL ILLINOIS

CITY           SKY/WX    TMP DP  RH WIND       PRES   REMARKS
PONTIAC        SUNNY     69  51  53 E9        30.14F
BLOOMINGTON    SUNNY     68  51  54 SE13      30.14F
DECATUR        SUNNY     69  54  58 E10       30.12F
PEORIA         SUNNY     72  50  45 E12       30.12F
6HR MIN TEMP:  54; 6HR MAX TEMP:  72;

LACON*         SUNNY     69  47  45 S5        30.12F
LINCOLN*       SUNNY     69  49  48 E6        30.10F
SPRINGFIELD    SUNNY     71  50  47 E9G17     30.12F
6HR MIN TEMP:  58; 6HR MAX TEMP:  72;

TAYLORVILLE    MOSUNNY   66  54  63 E9G18     30.11F
$$

ILZ033-039-045-046-055>057-062-063-021900-
EAST-CENTRAL ILLINOIS

CITY           SKY/WX    TMP DP  RH WIND       PRES   REMARKS
CHAMPAIGN      SUNNY     69  53  56 NE10      30.13F
DANVILLE*      MOSUNNY   66  53  62 E9        30.11F
RANTOUL*       SUNNY     70  49  48 E7        30.13F
MATTOON        MOSUNNY   69  54  58 VRB7      30.11F
PARIS*         SUNNY     69  54  57 E9        30.13S
$$

ILZ079-100>102-021900-
SOUTHWEST ILLINOIS

CITY           SKY/WX    TMP DP  RH WIND       PRES   REMARKS
ALTON          PTSUNNY   70  61  73 E7        30.11F
BELLEVILLE     CLOUDY    67  58  73 E6        30.10F
CAHOKIA*       CLOUDY    69  55  60 N5        30.11S
SPARTA*        CLOUDY    63  56  79 NE3       30.12S
$$

ILZ064>066-069>071-074>076-080>082-084>086-088>090-092>094-021900-
SOUTH-CENTRAL ILLINOIS

CITY           SKY/WX    TMP DP  RH WIND       PRES   REMARKS
CARBONDALE     CLOUDY    63  56  78 NE7       30.11F
6HR MIN TEMP:  59; 6HR MAX TEMP:  63;

CAIRO*         CLOUDY    64  56  78 CALM      30.11S
EFFINGHAM*     PTSUNNY   65  52  62 E5        30.14S
MARION         CLOUDY    64  57  77 MISG      30.12F
MT. VERNON     CLOUDY    63  54  72 E5        30.13F
CENTRALIA*     CLOUDY    67  52  59 E3        30.12F
SALEM*         CLOUDY    64  55  74 NE6       30.13F
$$

ILZ067-068-072-073-078-083-087-091-021900-
SOUTHEAST ILLINOIS

CITY           SKY/WX    TMP DP  RH WIND       PRES   REMARKS
LAWRENCEVILLE  CLOUDY    64  54  69 VRB3      30.13F
FLORA*         SUNNY     61  54  75 E6        30.14S
FAIRFIELD*     CLOUDY    60  54  79 NE7       30.12F
HARRISBURG*    CLOUDY    63  57  81 NE5       30.13F
ROBINSON*      PTSUNNY   67  56  66 NE5       30.12F
CARMI*         CLOUDY    63  52  67 NE5       30.12F
$$

ABBREVIATIONS USED IN REMARKS
   TC - TEMPERATURE IN CELSIUS
  WCI - WIND CHILL INDEX
   HX - HEAT INDEX
  VSB - VISIBILITY
$$




USA.gov is the U.S. government's official web portal to all federal, state and local government web resources and services.